DW1352 Weather Reports


time (UTC)temp
C
wind
direction
speed
KPH
gust
KPH
rain 1hr
cm
rain 24hr
cm
rain mn
cm
humidity
%
barometer
mb
20260906201206 28 152 11.3 24.1 0.00 0.79 0.79 64 1014.7
20260906200243 28 133 9.7 20.9 0.00 0.79 0.79 62 1014.8
20260906195239 28 149 9.7 22.5 0.00 0.79 0.79 64 1014.7
20260906192214 28 148 14.5 24.1 0.00 0.79 0.79 65 1014.6
20260906191209 28 158 12.9 25.7 0.00 0.79 0.79 61 1014.7
20260906190217 29 161 12.9 30.6 0.00 0.79 0.79 61 1014.8
20260906185246 28 177 12.9 27.4 0.00 0.79 0.79 61 1014.8
20260906184244 28 173 11.3 29.0 0.00 0.79 0.79 62 1014.8
20260906183210 29 160 17.7 29.0 0.00 0.79 0.79 59 1014.9
20260906182221 28 166 12.9 32.2 0.00 0.79 0.79 61 1014.9
20260906181231 29 174 19.3 30.6 0.00 0.79 0.79 59 1015.0
20260906180215 29 164 14.5 25.7 0.00 0.79 0.79 60 1015.0
20260906175204 28 172 12.9 29.0 0.00 0.79 0.79 61 1015.0
20260906174236 28 189 12.9 35.4 0.00 0.79 0.79 59 1014.9
20260906172223 28 180 14.5 25.7 0.00 0.79 0.79 60 1014.7
20260906171201 27 177 11.3 29.0 0.00 0.79 0.79 59 1014.8
20260906170246 27 159 14.5 30.6 0.00 0.79 0.79 60 1014.7
20260906165207 26 167 14.5 30.6 0.00 0.79 0.79 58 1014.6
20260906164240 26 160 16.1 27.4 0.00 0.79 0.79 61 1014.5
20260906163226 25 166 14.5 27.4 0.00 0.79 0.79 61 1014.3
20260906162233 24 187 12.9 27.4 0.00 0.79 0.79 63 1014.5
20260906161222 23 177 16.1 27.4 0.00 0.79 0.79 62 1014.5
20260906155244 22 217 1.6 9.7 0.00 0.79 0.79 72 1014.5
20260906154239 22 186 4.8 27.4 0.00 0.79 0.79 69 1014.5
20260906153240 22 155 14.5 27.4 0.00 0.79 0.79 67 1014.1
20260906152243 21 158 14.5 35.4 0.00 0.79 0.79 69 1014.2
20260906151213 21 160 20.9 48.3 0.00 0.79 0.79 72 1013.4
20260906145237 19 161 19.3 49.9 0.05 0.79 0.79 82 1014.4
20260906144213 18 166 12.9 40.2 0.13 0.79 0.79 90 1014.6
20260906143232 18 170 17.7 32.2 0.20 0.79 0.79 92 1015.2
20260906141219 18 163 19.3 27.4 0.33 0.79 0.79 95 1016.2
20260906140234 18 158 16.1 25.7 0.33 0.76 0.76 96 1016.8
20260906135242 18 164 11.3 19.3 0.36 0.74 0.74 95 1017.4
20260906133245 18 265 6.4 29.0 0.28 0.58 0.58 95 1018.2
20260906132242 18 266 12.9 24.1 0.20 0.48 0.48 95 1017.5
20260906131237 18 285 12.9 32.2 0.23 0.46 0.46 95 1016.9
20260906130234 18 279 12.9 24.1 0.25 0.43 0.43 95 1017.0
20260906124213 18 282 3.2 16.1 0.28 0.33 0.33 95 1017.8
20260906123239 18 302 9.7 16.1 0.28 0.30 0.30 95 1017.5
20260906122231 18 301 4.8 16.1 0.25 0.25 0.25 94 1017.8
20260906121222 18 318 9.7 17.7 0.23 0.23 0.23 94 1017.5
20260906120215 18 302 11.3 25.7 0.15 0.15 0.15 93 1017.3
20260906115232 18 309 12.9 22.5 0.10 0.10 0.10 92 1017.2
20260906114237 19 296 9.7 24.1 0.05 0.05 0.05 91 1017.4
20260906113244 20 308 16.1 27.4 0.03 0.03 0.03 89 1017.2
20260906112245 20 304 11.3 33.8 0.00 0.00 0.00 87 1017.3
20260906111201 21 294 12.9 30.6 0.00 0.00 0.00 85 1017.1
20260906110203 21 305 12.9 27.4 0.00 0.00 0.00 83 1016.8
20260906105227 21 313 14.5 27.4 0.00 0.00 0.00 82 1016.1
20260906104212 22 323 11.3 29.0 0.00 0.00 0.00 80 1015.9
20260906103228 22 319 11.3 30.6 0.00 0.00 0.00 78 1015.5
20260906102208 22 319 12.9 27.4 0.00 0.00 0.00 78 1015.6
20260906101241 22 335 9.7 24.1 0.00 0.00 0.00 78 1015.3
20260906095225 22 313 12.9 29.0 0.00 0.00 0.00 82 1015.4
20260906094223 22 293 6.4 22.5 0.00 0.00 0.00 84 1015.3
20260906093237 22 152 0.0 4.8 0.00 0.00 0.00 85 1014.3
20260906092222 22 152 0.0 6.4 0.00 0.00 0.00 85 1014.0
20260906091243 22 152 3.2 8.0 0.00 0.00 0.00 85 1013.9
20260906090204 22 147 4.8 6.4 0.00 0.00 0.00 86 1013.7
20260906085230 22 143 3.2 8.0 0.00 0.00 0.00 86 1013.8
20260906082217 22 121 1.6 6.4 0.00 0.00 0.00 86 1013.8
20260906081233 22 140 1.6 8.0 0.00 0.00 0.00 86 1013.6
20260906080223 22 142 3.2 9.7 0.00 0.00 0.00 87 1013.9
20260906075201 22 154 3.2 8.0 0.00 0.00 0.00 87 1014.0
20260906074214 22 162 3.2 8.0 0.00 0.00 0.00 87 1013.9
20260906072202 22 158 3.2 6.4 0.00 0.00 0.00 87 1014.1
20260906071221 22 157 1.6 6.4 0.00 0.00 0.00 87 1014.1
20260906070233 22 148 1.6 6.4 0.00 0.00 0.00 87 1014.1
20260906065227 22 148 3.2 8.0 0.00 0.00 0.00 86 1014.0
20260906064232 22 148 3.2 4.8 0.00 0.00 0.00 86 1013.7
20260906063230 23 149 3.2 4.8 0.00 0.00 0.00 85 1014.0
20260906062214 23 151 0.0 4.8 0.00 0.00 0.00 84 1013.9
20260906061212 23 151 0.0 4.8 0.00 0.00 0.00 83 1013.7
20260906060213 23 150 0.0 9.7 0.00 0.00 0.00 83 1013.9
20260906054200 23 131 3.2 8.0 0.00 0.00 0.00 84 1013.7
20260906053220 23 146 3.2 6.4 0.00 0.00 0.00 84 1013.9
20260906052235 23 152 1.6 4.8 0.00 0.00 0.00 85 1014.1
20260906050213 24 150 1.6 4.8 0.00 0.00 0.00 83 1014.3
20260906045159 24 150 0.0 3.2 0.00 0.00 0.00 82 1014.1
20260906044243 24 150 0.0 3.2 0.00 0.00 0.00 81 1014.1
20260906043203 25 150 0.0 1.6 0.00 0.00 0.00 81 1014.3
20260906042201 25 150 0.0 3.2 0.00 0.00 0.00 81 1014.2
20260906041232 25 151 1.6 6.4 0.00 0.00 0.00 81 1014.1
20260906040215 25 152 3.2 8.0 0.00 0.00 0.00 82 1014.0
20260906035212 25 150 3.2 8.0 0.00 0.00 0.00 82 1013.8
20260906034205 25 140 3.2 4.8 0.00 0.00 0.00 83 1013.9
20260906032202 25 139 1.6 4.8 0.00 0.00 0.00 83 1013.7
20260906031159 25 136 0.0 3.2 0.00 0.00 0.00 82 1013.6
20260906030207 25 135 0.0 4.8 0.00 0.00 0.00 81 1013.5
20260906025214 25 133 1.6 4.8 0.00 0.00 0.00 81 1013.4
20260906024210 26 126 3.2 6.4 0.00 0.00 0.00 81 1013.4
20260906023224 26 129 3.2 8.0 0.00 0.00 0.00 81 1013.4
20260906022200 26 131 3.2 4.8 0.00 0.00 0.00 80 1013.2
20260906021222 26 130 1.6 9.7 0.00 0.00 0.00 80 1013.0
20260906014207 27 111 0.0 0.0 0.00 0.00 0.00 78 1012.9
20260906013228 27 112 0.0 3.2 0.00 0.00 0.00 77 1012.8
20260906012221 27 113 1.6 8.0 0.00 0.00 0.00 76 1012.7
20260906011229 28 131 3.2 6.4 0.00 0.00 0.00 75 1012.6
20260906010240 28 134 0.0 4.8 0.00 0.00 0.00 73 1012.6
20260906005159 28 134 0.0 3.2 0.00 0.00 0.00 72 1012.5
20260906003219 29 130 1.6 8.0 0.00 0.00 0.00 70 1012.4
20260906002230 30 129 3.2 14.5 0.00 0.00 0.00 69 1012.4
20260906001229 30 131 3.2 8.0 0.00 0.00 0.00 67 1012.3
20260906000219 30 136 4.8 19.3 0.00 0.00 0.00 65 1012.3
20260905235236 30 125 8.0 17.7 0.00 0.00 0.00 65 1012.3
20260905234240 30 144 9.7 19.3 0.00 0.00 0.00 66 1012.3
20260905233203 30 143 8.0 17.7 0.00 0.00 0.00 65 1012.2
20260905232215 30 125 9.7 20.9 0.00 0.00 0.00 65 1012.2
20260905231231 30 137 9.7 27.4 0.00 0.00 0.00 64 1012.2
20260905230239 30 123 11.3 22.5 0.00 0.00 0.00 64 1012.2
20260905225200 30 125 11.3 22.5 0.00 0.00 0.00 64 1012.2
20260905224210 30 130 6.4 20.9 0.00 0.00 0.00 65 1012.2
20260905223244 31 143 4.8 22.5 0.00 0.00 0.00 65 1012.3
20260905222216 31 125 9.7 19.3 0.00 0.00 0.00 64 1012.4
20260905221242 31 139 11.3 22.5 0.00 0.00 0.00 67 1012.4
20260905215201 30 124 8.0 17.7 0.00 0.00 0.00 66 1012.6
20260905214225 30 132 6.4 22.5 0.00 0.00 0.00 65 1012.9
20260905213214 30 102 3.2 17.7 0.00 0.00 0.00 67 1013.0
20260905211159 30 139 8.0 24.1 0.00 0.00 0.00 69 1013.4
20260905210238 31 123 9.7 24.1 0.00 0.00 0.00 65 1013.5
20260905205213 30 133 6.4 27.4 0.00 0.00 0.00 68 1013.9
20260905202223 30 115 6.4 27.4 0.00 0.00 0.00 70 1014.1